www.pogodaiklimat.ru

Погода и климат >> Архив погоды >> Россия >> Краснодарский край >> Сочи


АРХИВ ПОГОДЫ в Сочи

Время (UTC), дата Ветер
(напр.,м/с)
 
Видим.   Явления Облачность Т
(С)
Тd
(С)
f
(%)
Тe
(С)
Тes
(С)
Комфортность P
(гПа)
Po
(гПа)
Тmin
(С)
Tmax
(С)
R
(мм)
R24
(мм)
S
(см)
12 11.06 СЗ 4 20 км 8/3 1000 м
[Sc Ac trans Ci fib]
+28.8 +19.2 56 +34 +39 очень
душно
1007.0 992.2
15 11.06 З 2 20 км ясно +28.9 +20.9 62 +36 +39 очень
душно
1004.7 990.0 +30.5
18 11.06 В 1 18 км 10/0
[Ci fib]
+26.8 +19.4 64 +32 +32 очень
душно
1006.4 991.6
21 11.06 В 2 20 км 4/0
[Ci fib]
+24.3 +20.2 78 +30 +30 очень
душно
1006.8 991.8
00 12.06 В 2 20 км 1/0
[Ci fib]
+24.2 +19.7 76 +29 +29 душно 1006.7 991.7
03 12.06 В 1 20 км 10/3 300 м
[Sc Ac trans Ci fib]
+23.1 +20.1 83 +30 +30 очень
душно
1007.5 992.5 +23.0
06 12.06 ЮВ 1 20 км 9/8 1000 м
[Sc Cc]
+26.0 +21.0 74 +33 +35 очень
душно
1007.5 992.6
09 12.06 Ю 1 20 км 3/3 1000 м
[Cu med, cong Ac cuf]
+28.5 +20.5 62 +35 +51 опасность
солнечного
удара
1007.7 992.9
12 12.06 ЮЗ 1 20 км 3/3 1000 м
[Cb cap Cc]
+27.9 +21.5 68 +36 +47 очень
душно
1007.7 992.9
15 12.06 ЮЗ 2 20 км {гроза} 9/8 1000 м
[Cb cap Ac cuf Cc]
+26.1 +23.2 84 +35 +35 очень
душно
1007.5 992.6 +29.8
18 12.06 В 1 20 км {гроза} 4/4 1000 м
[Cu Sc]
+24.1 +24.1 100 +33 +33 очень
душно
1008.4 993.4
21 12.06 В 1 20 км зарница 8/4 1000 м
[Cb cap Cc]
+22.7 +19.3 81 +29 +29 очень
душно
1009.0 993.9
00 13.06 В 1 20 км гроза без осадков 8/8 1000 м
[Cb cap]
+22.5 +18.3 77 +28 +28 душно 1009.5 994.4
03 13.06 ЮВ 1 20 км гроза без осадков 10/10 600 м
[Cb cap]
+21.4 +19.0 86 +26 +26 душно 1010.6 995.4 +21.3
06 13.06 В 1 20 км {гроза} 10/8 600 м
[Cb cap Ac As]
+23.2 +19.6 80 +30 +31 очень
душно
1011.0 995.9 +21.1
09 13.06 З 3 20 км 10/8 1000 м
[Sc Ac trans]
+23.5 +18.6 74 +28 +29 душно 1011.1 996.0
12 13.06 З 3 20 км {ливн. осадки} 10/8 1000 м
[Sc Ac trans Ci fib]
+25.0 +19.6 72 +30 +31 душно 1009.8 994.8
15 13.06 СЗ 3 20 км 10/3 1000 м
[Sc Ac trans Ci fib]
+25.2 +19.6 71 +31 +31 очень
душно
1009.6 994.6 +27.1 0.0
18 13.06 штиль 0 20 км 10/0
[Ci fib]
+22.7 +18.3 76 +28 +28 душно 1010.4 995.3
21 13.06 В 1 20 км 10/0
[Ac trans Ci fib]
+21.1 +19.4 90 +26 +26 душно 1011.8 996.6
00 14.06 В 1 20 км 10/0
[Ci fib]
+20.5 +19.7 95 +26 +26 душно 1011.2 996.0
03 14.06 В 1 20 км 10/0
[Ci fib]
+20.5 +19.0 91 +26 +27 душно 1011.6 996.4 +19.4
06 14.06 З 2 20 км 8/0
[Ci]
+25.0 +20.3 75 +31 +40 очень
душно
1012.1 997.1
09 14.06 З 3 20 км 4/3 1000 м
[Cu med, cong Ac trans]
+27.5 +20.1 64 +34 +44 очень
душно
1012.1 997.2
12 14.06 СЗ 4 20 км гроза без осадков 8/5 1000 м
[Cb cap Ci fib]
+27.5 +19.3 61 +33 +37 очень
душно
1011.0 996.1
15 14.06 СЗ 3 20 км в посл. час гроза 8/6 1000 м
[Cb cap Ac As]
+25.0 +21.7 82 +32 +33 очень
душно
1010.6 995.6 +28.9
18 14.06 Ю 1 20 км {гроза} 10/4 1000 м
[Sc Ac As Cs]
+24.0 +22.8 93 +32 +32 очень
душно
1011.8 996.8
21 14.06 В 1 20 км 8/6 1000 м
[Cu med, cong Cc]
+22.4 +21.0 92 +29 +29 очень
душно
1012.3 997.2
00 15.06 СВ 1 20 км 10/0
[Ac und]
+21.7 +20.7 94 +28 +28 душно 1010.8 995.6
03 15.06 СВ 1 20 км 10/4 1000 м
[Cu med, cong Ac trans]
+22.2 +18.6 80 +27 +28 душно 1010.3 995.2 +21.2
06 15.06 СЗ 1 20 км 9/0
[Ci fib]
+26.9 +19.0 62 +32 +43 очень
душно
1009.8 994.9
09 15.06 З 3 20 км 6/0
[Ac trans Ci sp]
+27.8 +22.5 73 +37 +49 очень
душно
1010.1 995.3
12 15.06 СЗ 3 20 км 3/1 1000 м
[Cb cap Ci ing]
+28.9 +21.4 64 +37 +46 очень
душно
1008.7 993.9
15 15.06 З 1 20 км 8/0
[Cs]
+27.0 +22.2 75 +35 +38 очень
душно
1007.6 992.8 +29.8
18 15.06 СЗ 1 20 км 6/0
[Ci sp]
+24.5 +23.5 94 +33 +33 очень
душно
1007.8 992.9
21 15.06 В 2 20 км 3/3 600 м
[Cu Sc]
+22.7 +20.4 87 +29 +29 очень
душно
1009.5 994.4
00 16.06 В 1 20 км 3/1 600 м
[Sc Ci sp]
+22.6 +21.1 91 +30 +30 очень
душно
1009.0 993.9
03 16.06 В 1 20 км 3/0
[Ac trans]
+22.2 +19.9 87 +28 +29 душно 1008.9 993.8 +21.6
06 16.06 З 1 20 км 8/0
[Ac trans Cc]
+28.2 +19.7 60 +34 +43 очень
душно
1008.5 993.7
09 16.06 З 3 20 км 10/0
[Ac trans Cs]
+28.2 +21.5 67 +36 +48 очень
душно
1008.9 994.1
12 16.06 СЗ 3 20 км 3/1 1000 м
[Cu med, cong Ci sp]
+28.8 +22.3 68 +38 +47 очень
душно
1008.2 993.4
15 16.06 З 4 20 км 6/0
[Ci sp]
+27.3 +22.9 77 +36 +38 очень
душно
1006.9 992.1 +29.6
18 16.06 штиль 0 20 км 3/0
[Ci fib]
+24.2 +20.7 81 +30 +30 очень
душно
1007.9 992.9
21 16.06 штиль 0 15 км слаб. ливневой дождь 10/9 600 м
[Cb cap Ci fib]
+23.5 +23.3 99 +32 +32 очень
душно
1009.5 994.5
00 17.06 СВ 1 15 км гроза без осадков {ливн. осадки} 10/5 600 м
[Cb cap Ci fib]
+22.1 +22.1 100 +29 +29 очень
душно
1009.0 993.9
03 17.06 СВ 1 20 км {гроза} 3/0
[Ac trans Ci fib]
+21.9 +19.5 86 +27 +28 душно 1008.2 993.1 +21.1 0.8
06 17.06 ЮЗ 2 20 км {гроза} ясно +25.7 +20.3 72 +32 +43 очень
душно
1008.8 993.9
09 17.06 З 3 20 км 10/0
[Ci fib]
+28.4 +21.7 67 +36 +49 очень
душно
1009.0 994.2
12 17.06 З 5 20 км гроза без осадков 10/4 600 м
[Cb cap Ci fib]
+28.9 +22.4 68 +38 +41 очень
душно
1007.8 993.1
15 17.06 СЗ 3 20 км {гроза} ясно +27.9 +19.2 59 +33 +35 очень
душно
1006.0 991.2 +31.4
18 17.06 В 1 20 км {гроза} 1/1 600 м
[Sc]
+24.1 +24.1 100 +33 +33 очень
душно
1007.5 992.5
21 17.06 В 1 20 км 10/5 300 м
[Sc Ci fib]
+23.6 +22.8 95 +31 +31 очень
душно
1008.5 993.5
00 18.06 В 3 20 км гроза без осадков 10/8 600 м
[Cb cap Ac trans]
+23.0 +20.3 85 +30 +30 очень
душно
1009.7 994.6
03 18.06 штиль 0 20 км {гроза} 10/4 600 м
[Cb cap Ci fib]
+22.2 +19.9 87 +28 +29 душно 1008.6 993.5 +21.5
06 18.06 ЮЗ 2 20 км {гроза} 3/0
[Ci fib]
+25.7 +18.9 66 +31 +41 очень
душно
1009.0 994.1
09 18.06 З 2 20 км 8/3 1000 м
[Cu med, cong Ci fib]
+28.1 +19.1 58 +33 +45 очень
душно
1009.3 994.5

 

Местоположение метеостанции Сочи (Краснодарский край, Россия): широта 43.58 долгота 39.77 высота над уровнем моря 132 м.

В архиве по умолчанию представлена погода в Сочи за последнюю неделю. Архивные данные за месяц целиком и за предыдущие месяцы, начиная с января 2011 года, Вы можете получить, выбрав интересующий диапазон дат из раскрывающегося списка и нажав кнопку "Ввод!".


*Определитесь, кто Вы:
робот инопланетянин человек

Внимание! Время в таблицах - всемирное. Для получения местного времени необходимо прибавить поправку, которая равна 3 ч.

Смотрите также архив погоды в соседних городах и на ближайших метеорологических станциях:

Погода в Сочи аэропорт (Адлере) (Краснодарский край, Россия) (20 км)
Погода в Кепше (Краснодарский край, Россия) (23 км)
Погода в Имеретинке (Краснодарский край, Россия) (25 км)
Погода в Солох Ауле (Краснодарский край, Россия) (27 км)
Погода в Кичмае (Краснодарский край, Россия) (35 км)
Погода в Красной Поляне (Краснодарский край, Россия) (36 км)
Погода в Горная Карусель 1500 (Краснодарский край, Россия) (43 км)
Погода в Горная Карусель 1000 (Краснодарский край, Россия) (43 км)
Погода на Кордоне Лаура (Краснодарский край, Россия) (45 км)
Погода в Лазаревском (Краснодарский край, Россия) (50 км)

Пояснения к столбцам:

Ветер - указаны скорость ветра в м/с - средняя за 10 мин, порывы в срок и между сроками (в фигурных скобках) и направление, откуда дует ветер: С - северный, СВ - северо-восточный, В - восточный, ЮВ - юго-восточный, Ю - южный, ЮЗ - юго-западный, З - западный, СЗ - северо-западный.
Видимость - горизонтальная дальность видимости в метрах или километрах. При видимости от 1 до 10 км при отсутствии осадков обычно наблюдается дымка, при ухудшении видимости до 1 км и менее - туман. В сухую погоду видимость может ухудшаться дымом, пылью или мглою.
Явления - указаны атмосферные явления, наблюдавшиеся в срок или в последний час перед сроком; фигурными скобками обозначены явления, наблюдавшиеся между сроками (за 1-3 часа до срока); квадратными скобками обозначены град или гололедные отложения с указанием их диаметра в мм.
Облачность - указаны через наклонную черту общая и нижняя облачность в баллах и высота нижней границы облаков в метрах; квадратными скобками обозначены формы облаков: Ci - перистые, Cs - перисто-слоистые, Cc - перисто-кучевые, Ac - высококучевые, As - высокослоистые, Sc - слоисто-кучевые, Ns - слоисто-дождевые, Cu - кучевые, Cb - кучево-дождевые. Подробнее классификацию облаков см. в Атласе облаков (PDF).
T - Температура воздуха - температура, измеренная на высоте 2 м над землей.
Td - Температура точки росы - температура, при понижении до которой содержащийся в воздухе водяной пар достигнет насыщения.
f - Относительная влажность воздуха - влажноcть воздуха, измеренная на высоте 2 м над землей.
Te - Эффективная температура - температура, которую ощущает одетый по сезону человек в тени. Характеристика душности погоды. При расчете учитывается влияние влажности воздуха и скорости ветра на теплоощущения человека.
Tes - Эффективная температура на солнце - температура, которую ощущает человек, с поправкой на солнечный нагрев. Характеристика знойности погоды. Зависит от высоты солнца над горизонтом, облачности и скорости ветра. Ночью, в пасмурную погоду, а также при ветре 12 м/с и более поправка равна нулю.
P - Атмосферное давление - приведенное к уровню моря атмосферное давление.
Po - Атмосферное давление - измеренное на уровне метеостанции атмосферное давление.
Tmin - Минимальная температура - минимум температуры воздуха на высоте 2 м над землей.
Tmax - Максимальная температура - максимум температуры воздуха на высоте 2 м над землей.
R - Количество осадков - Количество выпавших осадков за период времени, мм. При наведении курсора мыши на число - период времени, за который выпало указанное количество осадков.
R24 - Количество осадков - Количество выпавших осадков за 24 часа, мм.
S - Снежный покров - Высота снежного покрова, см. При наведении курсора мыши на число - состояние снежного покрова и степень покрытия местности в баллах.